Time,TemperatureF,DewpointF,PressureIn,WindDirection,WindDirectionDegrees,WindSpeedMPH,WindSpeedGustMPH,Humidity,HourlyPrecipIn,Conditions,Clouds,dailyrainin,SoftwareType,DateUTC
2013-07-04 00:08:00,64.7,45.0,25.71,South,184,4.0,7.0,49,0.00,,,0.00,weatherlink.com 1.10,2013-07-04 06:08:00,
2013-07-04 00:23:00,64.6,45.0,25.71,SSW,201,5.0,7.0,49,0.00,,,0.00,weatherlink.com 1.10,2013-07-04 06:23:00,
2013-07-04 00:38:00,63.9,45.0,25.71,South,190,4.0,8.0,50,0.00,,,0.00,weatherlink.com 1.10,2013-07-04 06:38:00,
2013-07-04 00:53:00,62.5,44.0,25.71,South,191,4.0,7.0,52,0.00,,,0.00,weatherlink.com 1.10,2013-07-04 06:53:00,
2013-07-04 01:08:00,61.2,45.0,25.71,SE,145,3.0,6.0,55,0.00,,,0.00,weatherlink.com 1.10,2013-07-04 07:08:00,
2013-07-04 01:23:00,60.4,45.0,25.71,SSE,153,2.0,3.0,58,0.00,,,0.00,weatherlink.com 1.10,2013-07-04 07:23:00,
2013-07-04 01:38:00,59.8,46.0,25.70,SE,142,1.0,2.0,60,0.00,,,0.00,weatherlink.com 1.10,2013-07-04 07:38:00,
2013-07-04 01:53:00,59.7,45.0,25.70,SSW,193,2.0,3.0,59,0.00,,,0.00,weatherlink.com 1.10,2013-07-04 07:53:00,
2013-07-04 02:08:00,59.9,45.0,25.70,SE,133,4.0,4.0,59,0.00,,,0.00,weatherlink.com 1.10,2013-07-04 08:08:00,
2013-07-04 02:23:00,59.2,45.0,25.69,SSW,212,3.0,4.0,60,0.00,,,0.00,weatherlink.com 1.10,2013-07-04 08:23:00,
2013-07-04 02:38:00,58.8,45.0,25.69,SSW,195,2.0,4.0,60,0.00,,,0.00,weatherlink.com 1.10,2013-07-04 08:38:00,
2013-07-04 02:53:00,58.7,45.0,25.69,SSE,158,2.0,5.0,61,0.00,,,0.00,weatherlink.com 1.10,2013-07-04 08:53:00,
2013-07-04 03:08:00,58.4,45.0,25.69,WSW,240,3.0,4.0,61,0.00,,,0.00,weatherlink.com 1.10,2013-07-04 09:08:00,
2013-07-04 03:23:00,58.8,45.0,25.69,South,174,3.0,7.0,60,0.00,,,0.00,weatherlink.com 1.10,2013-07-04 09:23:00,
2013-07-04 03:39:00,58.5,44.0,25.68,South,180,4.0,6.0,60,0.00,,,0.00,weatherlink.com 1.10,2013-07-04 09:39:00,
2013-07-04 03:53:00,58.2,45.0,25.68,SSE,160,2.0,6.0,61,0.00,,,0.00,weatherlink.com 1.10,2013-07-04 09:53:00,
2013-07-04 04:08:00,57.6,44.0,25.68,SW,235,6.0,7.0,62,0.00,,,0.00,weatherlink.com 1.10,2013-07-04 10:08:00,
2013-07-04 04:23:00,57.4,44.0,25.68,South,190,3.0,6.0,62,0.00,,,0.00,weatherlink.com 1.10,2013-07-04 10:23:00,
2013-07-04 04:38:00,56.8,44.0,25.68,SW,232,3.0,4.0,63,0.00,,,0.00,weatherlink.com 1.10,2013-07-04 10:38:00,
2013-07-04 04:53:00,56.8,45.0,25.68,WSW,237,1.0,3.0,64,0.00,,,0.00,weatherlink.com 1.10,2013-07-04 10:53:00,
2013-07-04 05:08:00,56.2,44.0,25.69,WSW,253,1.0,4.0,65,0.00,,,0.00,weatherlink.com 1.10,2013-07-04 11:08:00,
2013-07-04 05:23:00,55.0,45.0,25.69,WNW,291,2.0,3.0,68,0.00,,,0.00,weatherlink.com 1.10,2013-07-04 11:23:00,
2013-07-04 05:39:00,52.9,45.0,25.69,WNW,300,0.0,1.0,75,0.00,,,0.00,weatherlink.com 1.10,2013-07-04 11:39:00,
2013-07-04 05:54:00,53.9,45.0,25.69,WNW,298,0.0,1.0,73,0.00,,,0.00,weatherlink.com 1.10,2013-07-04 11:54:00,
2013-07-04 06:09:00,55.8,46.0,25.69,WNW,296,0.0,1.0,69,0.00,,,0.00,weatherlink.com 1.10,2013-07-04 12:09:00,
2013-07-04 06:24:00,57.7,46.0,25.69,WNW,283,0.0,2.0,65,0.00,,,0.00,weatherlink.com 1.10,2013-07-04 12:24:00,
2013-07-04 06:39:00,59.0,47.0,25.70,West,264,1.0,2.0,65,0.00,,,0.00,weatherlink.com 1.10,2013-07-04 12:39:00,
2013-07-04 06:54:00,60.9,48.0,25.70,West,262,1.0,2.0,62,0.00,,,0.00,weatherlink.com 1.10,2013-07-04 12:54:00,
2013-07-04 07:09:00,62.4,47.0,25.70,WSW,256,3.0,4.0,57,0.00,,,0.00,weatherlink.com 1.10,2013-07-04 13:09:00,
2013-07-04 07:24:00,63.1,48.0,25.70,WSW,240,5.0,5.0,58,0.00,,,0.00,weatherlink.com 1.10,2013-07-04 13:24:00,
2013-07-04 07:39:00,64.5,48.0,25.71,WSW,256,3.0,5.0,56,0.00,,,0.00,weatherlink.com 1.10,2013-07-04 13:39:00,
2013-07-04 07:54:00,66.2,49.0,25.71,West,279,3.0,6.0,54,0.00,,,0.00,weatherlink.com 1.10,2013-07-04 13:54:00,
2013-07-04 08:09:00,67.7,49.0,25.71,WSW,238,3.0,5.0,52,0.00,,,0.00,weatherlink.com 1.10,2013-07-04 14:09:00,
2013-07-04 08:24:00,70.4,51.0,25.71,West,271,2.0,5.0,50,0.00,,,0.00,weatherlink.com 1.10,2013-07-04 14:24:00,
2013-07-04 08:39:00,72.0,50.0,25.71,SSW,207,0.0,5.0,46,0.00,,,0.00,weatherlink.com 1.10,2013-07-04 14:39:00,
2013-07-04 08:54:00,75.7,50.0,25.71,WNW,300,1.0,3.0,41,0.00,,,0.00,weatherlink.com 1.10,2013-07-04 14:54:00,
2013-07-04 09:09:00,78.0,50.0,25.71,NNE,31,1.0,4.0,38,0.00,,,0.00,weatherlink.com 1.10,2013-07-04 15:09:00,
2013-07-04 09:24:00,81.4,49.0,25.71,North,9,2.0,5.0,32,0.00,,,0.00,weatherlink.com 1.10,2013-07-04 15:24:00,
2013-07-04 09:39:00,82.9,49.0,25.71,NNW,346,3.0,5.0,31,0.00,,,0.00,weatherlink.com 1.10,2013-07-04 15:39:00,
2013-07-04 09:54:00,83.3,49.0,25.71,NE,43,5.0,8.0,30,0.00,,,0.00,weatherlink.com 1.10,2013-07-04 15:54:00,
2013-07-04 10:09:00,84.8,48.0,25.71,NNW,345,1.0,7.0,28,0.00,,,0.00,weatherlink.com 1.10,2013-07-04 16:09:00,
2013-07-04 10:24:00,86.0,49.0,25.71,NNE,33,6.0,9.0,28,0.00,,,0.00,weatherlink.com 1.10,2013-07-04 16:24:00,
2013-07-04 10:39:00,86.4,47.0,25.70,NE,51,4.0,8.0,25,0.00,,,0.00,weatherlink.com 1.10,2013-07-04 16:39:00,
2013-07-04 10:54:00,86.1,46.0,25.70,NNE,22,5.0,9.0,25,0.00,,,0.00,weatherlink.com 1.10,2013-07-04 16:54:00,
2013-07-04 11:09:00,86.3,47.0,25.70,ESE,103,10.0,11.0,25,0.00,,,0.00,weatherlink.com 1.10,2013-07-04 17:09:00,
2013-07-04 11:24:00,85.6,47.0,25.70,NE,56,5.0,10.0,26,0.00,,,0.00,weatherlink.com 1.10,2013-07-04 17:24:00,
2013-07-04 11:39:00,85.7,46.0,25.70,ENE,67,7.0,10.0,25,0.00,,,0.00,weatherlink.com 1.10,2013-07-04 17:39:00,
2013-07-04 11:54:00,86.4,47.0,25.70,NE,47,8.0,10.0,25,0.00,,,0.00,weatherlink.com 1.10,2013-07-04 17:54:00,
2013-07-04 12:09:00,89.4,45.0,25.70,WNW,302,4.0,11.0,21,0.00,,,0.00,weatherlink.com 1.10,2013-07-04 18:09:00,
2013-07-04 12:24:00,89.1,44.0,25.70,NNE,30,9.0,14.0,21,0.00,,,0.00,weatherlink.com 1.10,2013-07-04 18:24:00,
2013-07-04 12:39:00,87.6,45.0,25.71,ENE,67,8.0,21.0,23,0.00,,,0.00,weatherlink.com 1.10,2013-07-04 18:39:00,
2013-07-04 12:55:00,86.9,45.0,25.72,NW,305,16.0,22.0,23,0.00,,,0.00,weatherlink.com 1.10,2013-07-04 18:55:00,
2013-07-04 13:10:00,83.5,52.0,25.73,ENE,77,16.0,25.0,34,0.00,,,0.00,weatherlink.com 1.10,2013-07-04 19:10:00,
2013-07-04 13:25:00,78.3,53.0,25.75,SE,128,21.0,32.0,42,0.00,,,0.00,weatherlink.com 1.10,2013-07-04 19:25:00,
2013-07-04 13:40:00,76.4,55.0,25.75,NNE,24,18.0,27.0,47,0.00,,,0.00,weatherlink.com 1.10,2013-07-04 19:40:00,
2013-07-04 13:55:00,76.4,55.0,25.74,NNE,30,18.0,21.0,48,0.00,,,0.00,weatherlink.com 1.10,2013-07-04 19:55:00,
2013-07-04 14:10:00,77.6,53.0,25.74,NNE,33,13.0,19.0,43,0.00,,,0.00,weatherlink.com 1.10,2013-07-04 20:10:00,
2013-07-04 14:25:00,79.8,48.0,25.71,East,80,22.0,22.0,33,0.00,,,0.00,weatherlink.com 1.10,2013-07-04 20:25:00,
2013-07-04 14:40:00,78.7,49.0,25.71,NE,36,18.0,22.0,35,0.00,,,0.00,weatherlink.com 1.10,2013-07-04 20:40:00,
2013-07-04 14:55:00,78.9,49.0,25.71,ENE,75,15.0,17.0,35,0.00,,,0.00,weatherlink.com 1.10,2013-07-04 20:55:00,
2013-07-04 15:10:00,80.3,48.0,25.71,NE,36,9.0,17.0,32,0.00,,,0.00,weatherlink.com 1.10,2013-07-04 21:10:00,
2013-07-04 15:25:00,81.7,47.0,25.71,NNE,30,9.0,17.0,30,0.00,,,0.00,weatherlink.com 1.10,2013-07-04 21:25:00,
2013-07-04 15:40:00,84.3,49.0,25.70,NE,36,9.0,11.0,29,0.00,,,0.00,weatherlink.com 1.10,2013-07-04 21:40:00,
2013-07-04 15:55:00,86.1,47.0,25.70,North,350,11.0,12.0,26,0.00,,,0.00,weatherlink.com 1.10,2013-07-04 21:55:00,
2013-07-04 16:10:00,87.6,47.0,25.70,NE,39,10.0,16.0,24,0.00,,,0.00,weatherlink.com 1.10,2013-07-04 22:10:00,
2013-07-04 16:25:00,87.6,47.0,25.70,NNE,32,9.0,16.0,24,0.00,,,0.00,weatherlink.com 1.10,2013-07-04 22:25:00,
2013-07-04 16:40:00,87.6,45.0,25.70,East,79,14.0,17.0,23,0.00,,,0.00,weatherlink.com 1.10,2013-07-04 22:40:00,
2013-07-04 16:55:00,86.0,46.0,25.70,ENE,67,15.0,23.0,25,0.00,,,0.00,weatherlink.com 1.10,2013-07-04 22:55:00,
2013-07-04 17:10:00,85.4,47.0,25.71,ENE,73,17.0,22.0,26,0.00,,,0.00,weatherlink.com 1.10,2013-07-04 23:10:00,
2013-07-04 17:25:00,84.7,49.0,25.70,NE,53,15.0,19.0,29,0.00,,,0.00,weatherlink.com 1.10,2013-07-04 23:25:00,
2013-07-04 17:40:00,83.4,50.0,25.70,ENE,72,16.0,19.0,31,0.00,,,0.00,weatherlink.com 1.10,2013-07-04 23:40:00,
2013-07-04 17:55:00,82.8,49.0,25.70,ENE,58,8.0,17.0,31,0.00,,,0.00,weatherlink.com 1.10,2013-07-04 23:55:00,
2013-07-04 18:10:00,82.0,50.0,25.69,ENE,72,8.0,12.0,33,0.00,,,0.00,weatherlink.com 1.10,2013-07-05 00:10:00,
2013-07-04 18:25:00,81.9,49.0,25.69,ENE,71,11.0,13.0,32,0.00,,,0.00,weatherlink.com 1.10,2013-07-05 00:25:00,
2013-07-04 18:40:00,81.9,50.0,25.69,East,86,12.0,12.0,33,0.00,,,0.00,weatherlink.com 1.10,2013-07-05 00:40:00,
2013-07-04 18:55:00,81.2,50.0,25.70,East,89,6.0,8.0,34,0.00,,,0.00,weatherlink.com 1.10,2013-07-05 00:55:00,
2013-07-04 19:10:00,80.7,50.0,25.70,ESE,114,4.0,5.0,34,0.00,,,0.00,weatherlink.com 1.10,2013-07-05 01:10:00,
2013-07-04 19:25:00,79.2,50.0,25.70,SE,126,2.0,5.0,36,0.00,,,0.00,weatherlink.com 1.10,2013-07-05 01:25:00,
2013-07-04 19:40:00,77.9,52.0,25.70,SSE,163,1.0,1.0,40,0.00,,,0.00,weatherlink.com 1.10,2013-07-05 01:40:00,
2013-07-04 19:55:00,76.9,51.0,25.71,SE,139,1.0,2.0,41,0.00,,,0.00,weatherlink.com 1.10,2013-07-05 01:55:00,
2013-07-04 20:10:00,76.4,52.0,25.71,East,89,1.0,1.0,43,0.00,,,0.00,weatherlink.com 1.10,2013-07-05 02:10:00,
2013-07-04 20:25:00,75.5,53.0,25.70,East,92,2.0,2.0,45,0.00,,,0.00,weatherlink.com 1.10,2013-07-05 02:25:00,
2013-07-04 20:40:00,74.8,53.0,25.71,ENE,70,3.0,4.0,46,0.00,,,0.00,weatherlink.com 1.10,2013-07-05 02:40:00,
2013-07-04 20:55:00,73.2,53.0,25.72,East,79,0.0,3.0,49,0.00,,,0.00,weatherlink.com 1.10,2013-07-05 02:55:00,
2013-07-04 21:10:00,70.8,52.0,25.72,NE,36,1.0,1.0,51,0.00,,,0.00,weatherlink.com 1.10,2013-07-05 03:10:00,
2013-07-04 21:25:00,69.7,52.0,25.72,NE,35,0.0,1.0,53,0.00,,,0.00,weatherlink.com 1.10,2013-07-05 03:25:00,
2013-07-04 21:40:00,69.6,52.0,25.73,NE,36,0.0,0.0,53,0.00,,,0.00,weatherlink.com 1.10,2013-07-05 03:40:00,
2013-07-04 21:55:00,68.8,51.0,25.72,NE,36,0.0,0.0,54,0.00,,,0.00,weatherlink.com 1.10,2013-07-05 03:55:00,
2013-07-04 22:10:00,68.5,52.0,25.72,East,96,3.0,3.0,56,0.00,,,0.00,weatherlink.com 1.10,2013-07-05 04:10:00,
2013-07-04 22:25:00,69.2,52.0,25.72,East,96,3.0,5.0,54,0.00,,,0.00,weatherlink.com 1.10,2013-07-05 04:25:00,
2013-07-04 22:40:00,68.7,52.0,25.72,SSE,159,0.0,4.0,56,0.00,,,0.00,weatherlink.com 1.10,2013-07-05 04:40:00,
2013-07-04 22:55:00,67.9,53.0,25.72,ESE,115,6.0,6.0,59,0.00,,,0.00,weatherlink.com 1.10,2013-07-05 04:55:00,
2013-07-04 23:10:00,67.5,53.0,25.71,SE,139,2.0,4.0,60,0.00,,,0.00,weatherlink.com 1.10,2013-07-05 05:10:00,
2013-07-04 23:25:00,67.6,53.0,25.71,ESE,109,2.0,3.0,60,0.00,,,0.00,weatherlink.com 1.10,2013-07-05 05:25:00,
2013-07-04 23:40:00,67.5,53.0,25.71,SE,142,1.0,2.0,60,0.00,,,0.00,weatherlink.com 1.10,2013-07-05 05:40:00,
2013-07-04 23:55:00,67.6,53.0,25.71,SE,133,0.0,3.0,60,0.00,,,0.00,weatherlink.com 1.10,2013-07-05 05:55:00,